owner,sensor,date,latitude,longitude,vertical_datum,direction_of_sea_water_velocity,sea_water_speed,upward_sea_water_velocity,qcFlag 
TABS,ioos:station:wmo:42048:1,2006-10-01T00:00:00Z,27.9396,-96.8429,2.0,15.92098078,16.00388078,-99999.0,'11111222,11111222,99999999' 
TABS,ioos:station:wmo:42048:1,2006-10-01T00:30:00Z,27.9396,-96.8429,2.0,25.77415244,15.2246018,-99999.0,'11111222,11111222,99999999' 
TABS,ioos:station:wmo:42048:1,2006-10-01T01:00:00Z,27.9396,-96.8429,2.0,16.17695408,14.28561514,-99999.0,'11111222,11111222,99999999' 
TABS,ioos:station:wmo:42048:1,2006-10-01T01:30:00Z,27.9396,-96.8429,2.0,12.93760847,12.01499896,-99999.0,'11111222,11111222,99999999' 
TABS,ioos:station:wmo:42048:1,2006-10-01T02:00:00Z,27.9396,-96.8429,2.0,18.84423677,10.18595602,-99999.0,'11111222,11111222,99999999' 
TABS,ioos:station:wmo:42048:1,2006-10-01T02:30:00Z,27.9396,-96.8429,2.0,16.35191436,10.2652131,-99999.0,'11111222,11111222,99999999' 
TABS,ioos:station:wmo:42048:1,2006-10-01T03:00:00Z,27.9396,-96.8429,2.0,15.23047944,10.12563578,-99999.0,'11111222,11111222,99999999' 
TABS,ioos:station:wmo:42048:1,2006-10-01T03:30:00Z,27.9396,-96.8429,2.0,27.49397248,10.4840641,-99999.0,'11111222,11111222,99999999' 
TABS,ioos:station:wmo:42048:1,2006-10-01T04:00:00Z,27.9396,-96.8429,2.0,9.348470593,9.911634578,-99999.0,'11133222,11111222,99999999' 
TABS,ioos:station:wmo:42048:1,2006-10-01T04:30:00Z,27.9396,-96.8429,2.0,11.54602915,7.144571366,-99999.0,'11133222,11111222,99999999' 
TABS,ioos:station:wmo:42048:1,2006-10-01T05:00:00Z,27.9396,-96.8429,2.0,8.93259922,8.887789376,-99999.0,'11133222,11111222,99999999' 
TABS,ioos:station:wmo:42048:1,2006-10-01T05:30:00Z,27.9396,-96.8429,2.0,15.05664668,8.853953919,-99999.0,'11133222,11111222,99999999' 
TABS,ioos:station:wmo:42048:1,2006-10-01T06:00:00Z,27.9396,-96.8429,2.0,13.63305093,8.612653482,-99999.0,'11133222,11111222,99999999' 
TABS,ioos:station:wmo:42048:1,2006-10-01T06:30:00Z,27.9396,-96.8429,2.0,28.17277941,6.057656312,-99999.0,'11133222,11111222,99999999' 
TABS,ioos:station:wmo:42048:1,2006-10-01T07:00:00Z,27.9396,-96.8429,2.0,13.24392515,10.17049163,-99999.0,'11111222,11111222,99999999' 
TABS,ioos:station:wmo:42048:1,2006-10-01T07:30:00Z,27.9396,-96.8429,2.0,15.70881155,7.645554264,-99999.0,'11133222,11111222,99999999' 
TABS,ioos:station:wmo:42048:1,2006-10-01T08:00:00Z,27.9396,-96.8429,2.0,23.78218527,6.447480128,-99999.0,'11133222,11111222,99999999' 
TABS,ioos:station:wmo:42048:1,2006-10-01T08:30:00Z,27.9396,-96.8429,2.0,20.11979655,6.453836069,-99999.0,'11133222,11111222,99999999' 
TABS,ioos:station:wmo:42048:1,2006-10-01T09:00:00Z,27.9396,-96.8429,2.0,21.42545416,5.940521863,-99999.0,'11133222,11111222,99999999' 
TABS,ioos:station:wmo:42048:1,2006-10-01T09:30:00Z,27.9396,-96.8429,2.0,6.710031576,6.846897107,-99999.0,'11133222,11111222,99999999' 
TABS,ioos:station:wmo:42048:1,2006-10-01T10:00:00Z,27.9396,-96.8429,2.0,22.13254141,5.786363279,-99999.0,'11133222,11111222,99999999' 
TABS,ioos:station:wmo:42048:1,2006-10-01T10:30:00Z,27.9396,-96.8429,2.0,26.47418189,5.630426272,-99999.0,'11133222,11111222,99999999' 
TABS,ioos:station:wmo:42048:1,2006-10-01T11:00:00Z,27.9396,-96.8429,2.0,35.28468944,6.57851807,-99999.0,'11133222,11111222,99999999' 
TABS,ioos:station:wmo:42048:1,2006-10-01T11:30:00Z,27.9396,-96.8429,2.0,21.66518349,7.801083258,-99999.0,'11133222,11111222,99999999' 
TABS,ioos:station:wmo:42048:1,2006-10-01T12:00:00Z,27.9396,-96.8429,2.0,11.3283577,6.160008117,-99999.0,'11133222,11111222,99999999' 
TABS,ioos:station:wmo:42048:1,2006-10-01T12:30:00Z,27.9396,-96.8429,2.0,33.71347119,6.828359979,-99999.0,'11133222,11111222,99999999' 
TABS,ioos:station:wmo:42048:1,2006-10-01T13:00:00Z,27.9396,-96.8429,2.0,25.79617663,3.9984497,-99999.0,'11133222,11111222,99999999' 
TABS,ioos:station:wmo:42048:1,2006-10-01T13:30:00Z,27.9396,-96.8429,2.0,6.104312713,5.360391777,-99999.0,'11133222,11111222,99999999' 
TABS,ioos:station:wmo:42048:1,2006-10-01T14:00:00Z,27.9396,-96.8429,2.0,17.52573785,7.372197773,-99999.0,'11133222,11111222,99999999' 
TABS,ioos:station:wmo:42048:1,2006-10-01T14:30:00Z,27.9396,-96.8429,2.0,32.00551882,4.622650755,-99999.0,'11133222,11111222,99999999' 
TABS,ioos:station:wmo:42048:1,2006-10-01T15:00:00Z,27.9396,-96.8429,2.0,38.6978139,7.085605126,-99999.0,'11133222,11111222,99999999' 
TABS,ioos:station:wmo:42048:1,2006-10-01T15:30:00Z,27.9396,-96.8429,2.0,27.37900339,7.871753299,-99999.0,'11133222,11111222,99999999' 
TABS,ioos:station:wmo:42048:1,2006-10-01T16:00:00Z,27.9396,-96.8429,2.0,13.56518584,7.077428912,-99999.0,'11133222,11111222,99999999' 
TABS,ioos:station:wmo:42048:1,2006-10-01T16:30:00Z,27.9396,-96.8429,2.0,25.66685887,8.842499647,-99999.0,'11133222,11111222,99999999' 
TABS,ioos:station:wmo:42048:1,2006-10-01T17:00:00Z,27.9396,-96.8429,2.0,8.186379578,10.11304603,-99999.0,'11111222,11111222,99999999' 
TABS,ioos:station:wmo:42048:1,2006-10-01T17:30:00Z,27.9396,-96.8429,2.0,2.374658066,10.37891131,-99999.0,'11111222,11111222,99999999' 
TABS,ioos:station:wmo:42048:1,2006-10-01T18:00:00Z,27.9396,-96.8429,2.0,7.608027191,11.48106267,-99999.0,'11111222,11111222,99999999' 
TABS,ioos:station:wmo:42048:1,2006-10-01T18:30:00Z,27.9396,-96.8429,2.0,3.373373913,10.02737254,-99999.0,'11111222,11111222,99999999' 
TABS,ioos:station:wmo:42048:1,2006-10-01T19:00:00Z,27.9396,-96.8429,2.0,357.9593584,13.47854963,-99999.0,'11111222,11111222,99999999' 
TABS,ioos:station:wmo:42048:1,2006-10-01T19:30:00Z,27.9396,-96.8429,2.0,4.314805081,15.15294361,-99999.0,'11111222,11111222,99999999' 
TABS,ioos:station:wmo:42048:1,2006-10-01T20:00:00Z,27.9396,-96.8429,2.0,2.987541269,14.19929576,-99999.0,'11111222,11111222,99999999' 
TABS,ioos:station:wmo:42048:1,2006-10-01T20:30:00Z,27.9396,-96.8429,2.0,7.088669561,15.55892027,-99999.0,'11111222,11111222,99999999' 
TABS,ioos:station:wmo:42048:1,2006-10-01T21:00:00Z,27.9396,-96.8429,2.0,9.264984075,14.78284479,-99999.0,'11111222,11111222,99999999' 
TABS,ioos:station:wmo:42048:1,2006-10-01T21:30:00Z,27.9396,-96.8429,2.0,1.286504398,12.47314315,-99999.0,'11111222,11111222,99999999' 
TABS,ioos:station:wmo:42048:1,2006-10-01T22:00:00Z,27.9396,-96.8429,2.0,354.2046924,12.08175484,-99999.0,'11111222,11111222,99999999' 
TABS,ioos:station:wmo:42048:1,2006-10-01T22:30:00Z,27.9396,-96.8429,2.0,349.8635445,13.4093102,-99999.0,'11111222,11111222,99999999' 
TABS,ioos:station:wmo:42048:1,2006-10-01T23:00:00Z,27.9396,-96.8429,2.0,346.3196921,9.767097829,-99999.0,'11133222,11111222,99999999' 
TABS,ioos:station:wmo:42048:1,2006-10-01T23:30:00Z,27.9396,-96.8429,2.0,337.2897408,12.64001582,-99999.0,'11111222,11111222,99999999' 
TABS,ioos:station:wmo:42048:1,2006-10-02T00:00:00Z,27.9396,-96.8429,2.0,335.520149,11.80083472,-99999.0,'11111222,11111222,99999999' 
TABS,ioos:station:wmo:42048:1,2006-10-02T00:30:00Z,27.9396,-96.8429,2.0,328.3276579,10.95102278,-99999.0,'11111222,11111222,99999999' 
TABS,ioos:station:wmo:42048:1,2006-10-02T01:00:00Z,27.9396,-96.8429,2.0,322.9668534,10.51004282,-99999.0,'11111222,11111222,99999999' 
TABS,ioos:station:wmo:42048:1,2006-10-02T01:30:00Z,27.9396,-96.8429,2.0,325.332992,10.40768947,-99999.0,'11111222,11111222,99999999' 
TABS,ioos:station:wmo:42048:1,2006-10-02T02:00:00Z,27.9396,-96.8429,2.0,330.4465959,10.03570625,-99999.0,'11111222,11111222,99999999' 
TABS,ioos:station:wmo:42048:1,2006-10-02T02:30:00Z,27.9396,-96.8429,2.0,332.4796056,10.99403929,-99999.0,'11111222,11111222,99999999' 
TABS,ioos:station:wmo:42048:1,2006-10-02T03:00:00Z,27.9396,-96.8429,2.0,334.7482712,8.391930648,-99999.0,'11133222,11111222,99999999' 
TABS,ioos:station:wmo:42048:1,2006-10-02T03:30:00Z,27.9396,-96.8429,2.0,316.5134337,9.372432982,-99999.0,'11133222,11111222,99999999' 
TABS,ioos:station:wmo:42048:1,2006-10-02T04:00:00Z,27.9396,-96.8429,2.0,334.9473329,8.643176499,-99999.0,'11133222,11111222,99999999' 
TABS,ioos:station:wmo:42048:1,2006-10-02T04:30:00Z,27.9396,-96.8429,2.0,335.2645266,8.125539982,-99999.0,'11133222,11111222,99999999' 
TABS,ioos:station:wmo:42048:1,2006-10-02T05:00:00Z,27.9396,-96.8429,2.0,337.5016894,7.630786329,-99999.0,'11133222,11111222,99999999' 
TABS,ioos:station:wmo:42048:1,2006-10-02T05:30:00Z,27.9396,-96.8429,2.0,348.2677548,7.180006964,-99999.0,'11133222,11111222,99999999' 
TABS,ioos:station:wmo:42048:1,2006-10-02T06:00:00Z,27.9396,-96.8429,2.0,359.0571574,2.430329196,-99999.0,'11133222,11144222,99999999' 
TABS,ioos:station:wmo:42048:1,2006-10-02T06:30:00Z,27.9396,-96.8429,2.0,19.055886,4.961904876,-99999.0,'11133222,11111222,99999999' 
TABS,ioos:station:wmo:42048:1,2006-10-02T07:00:00Z,27.9396,-96.8429,2.0,331.7390351,3.928256611,-99999.0,'11133222,11111222,99999999' 
TABS,ioos:station:wmo:42048:1,2006-10-02T07:30:00Z,27.9396,-96.8429,2.0,322.6535737,4.566158123,-99999.0,'11133222,11111222,99999999' 
TABS,ioos:station:wmo:42048:1,2006-10-02T08:00:00Z,27.9396,-96.8429,2.0,346.4688832,6.881002834,-99999.0,'11133222,11111222,99999999' 
TABS,ioos:station:wmo:42048:1,2006-10-02T08:30:00Z,27.9396,-96.8429,2.0,13.54935576,5.420867089,-99999.0,'11133222,11111222,99999999' 
TABS,ioos:station:wmo:42048:1,2006-10-02T09:00:00Z,27.9396,-96.8429,2.0,21.63906149,4.58297938,-99999.0,'11133222,11111222,99999999' 
TABS,ioos:station:wmo:42048:1,2006-10-02T09:30:00Z,27.9396,-96.8429,2.0,312.4158083,4.07708229,-99999.0,'11133222,11111222,99999999' 
TABS,ioos:station:wmo:42048:1,2006-10-02T10:00:00Z,27.9396,-96.8429,2.0,344.2992559,2.254107362,-99999.0,'11133222,11111222,99999999' 
TABS,ioos:station:wmo:42048:1,2006-10-02T10:30:00Z,27.9396,-96.8429,2.0,306.1472973,3.170252356,-99999.0,'11133222,11111222,99999999' 
TABS,ioos:station:wmo:42048:1,2006-10-02T11:00:00Z,27.9396,-96.8429,2.0,50.03388041,2.74,-99999.0,'11133222,11111222,99999999' 
TABS,ioos:station:wmo:42048:1,2006-10-02T11:30:00Z,27.9396,-96.8429,2.0,309.3597794,3.45325933,-99999.0,'11133222,11111222,99999999' 
TABS,ioos:station:wmo:42048:1,2006-10-02T12:00:00Z,27.9396,-96.8429,2.0,339.3917608,3.835440001,-99999.0,'11133222,11111222,99999999' 
TABS,ioos:station:wmo:42048:1,2006-10-02T12:30:00Z,27.9396,-96.8429,2.0,329.9519581,2.576237567,-99999.0,'11133222,11111222,99999999' 
TABS,ioos:station:wmo:42048:1,2006-10-02T13:00:00Z,27.9396,-96.8429,2.0,350.5080378,3.153173005,-99999.0,'11133222,11111222,99999999' 
TABS,ioos:station:wmo:42048:1,2006-10-02T13:30:00Z,27.9396,-96.8429,2.0,349.9120643,3.311193138,-99999.0,'11133222,11111222,99999999' 
TABS,ioos:station:wmo:42048:1,2006-10-02T14:00:00Z,27.9396,-96.8429,2.0,339.0877117,1.316738395,-99999.0,'11133222,11111222,99999999' 
TABS,ioos:station:wmo:42048:1,2006-10-02T14:30:00Z,27.9396,-96.8429,2.0,352.5688199,2.319482701,-99999.0,'11133222,11111222,99999999' 
TABS,ioos:station:wmo:42048:1,2006-10-02T15:00:00Z,27.9396,-96.8429,2.0,14.62105026,2.139275578,-99999.0,'11133222,11111222,99999999' 
TABS,ioos:station:wmo:42048:1,2006-10-02T15:30:00Z,27.9396,-96.8429,2.0,323.9602116,3.314347598,-99999.0,'11133222,11111222,99999999' 
TABS,ioos:station:wmo:42048:1,2006-10-02T16:00:00Z,27.9396,-96.8429,2.0,310.6165491,4.162895627,-99999.0,'11133222,11111222,99999999' 
TABS,ioos:station:wmo:42048:1,2006-10-02T16:30:00Z,27.9396,-96.8429,2.0,349.0077286,2.831960452,-99999.0,'11133222,11111222,99999999' 
TABS,ioos:station:wmo:42048:1,2006-10-02T17:00:00Z,27.9396,-96.8429,2.0,339.6490649,4.255643312,-99999.0,'11133222,11111222,99999999' 
TABS,ioos:station:wmo:42048:1,2006-10-02T17:30:00Z,27.9396,-96.8429,2.0,337.7630857,6.103982307,-99999.0,'11133222,11111222,99999999' 
TABS,ioos:station:wmo:42048:1,2006-10-02T18:00:00Z,27.9396,-96.8429,2.0,339.8127164,9.098966974,-99999.0,'11133222,11111222,99999999' 
TABS,ioos:station:wmo:42048:1,2006-10-02T18:30:00Z,27.9396,-96.8429,2.0,355.1740301,7.606970488,-99999.0,'11133222,11111222,99999999' 
TABS,ioos:station:wmo:42048:1,2006-10-02T19:00:00Z,27.9396,-96.8429,2.0,330.2350835,10.49457955,-99999.0,'11111222,11111222,99999999' 
TABS,ioos:station:wmo:42048:1,2006-10-02T19:30:00Z,27.9396,-96.8429,2.0,327.5585975,14.89446206,-99999.0,'11111222,11111222,99999999' 
TABS,ioos:station:wmo:42048:1,2006-10-02T20:00:00Z,27.9396,-96.8429,2.0,323.4385221,14.50420973,-99999.0,'11111222,11111222,99999999' 
TABS,ioos:station:wmo:42048:1,2006-10-02T20:30:00Z,27.9396,-96.8429,2.0,334.1860814,14.67433815,-99999.0,'11111222,11111222,99999999' 
TABS,ioos:station:wmo:42048:1,2006-10-02T21:00:00Z,27.9396,-96.8429,2.0,331.7941852,13.11768272,-99999.0,'11111222,11111222,99999999' 
TABS,ioos:station:wmo:42048:1,2006-10-02T21:30:00Z,27.9396,-96.8429,2.0,340.0335384,11.94819233,-99999.0,'11111222,11111222,99999999' 
TABS,ioos:station:wmo:42048:1,2006-10-02T22:00:00Z,27.9396,-96.8429,2.0,328.5206894,10.85801547,-99999.0,'11111222,11111222,99999999' 
TABS,ioos:station:wmo:42048:1,2006-10-02T22:30:00Z,27.9396,-96.8429,2.0,331.364336,10.76699122,-99999.0,'11111222,11111222,99999999' 
TABS,ioos:station:wmo:42048:1,2006-10-02T23:00:00Z,27.9396,-96.8429,2.0,325.5893709,10.58174371,-99999.0,'11111222,11111222,99999999' 
TABS,ioos:station:wmo:42048:1,2006-10-02T23:30:00Z,27.9396,-96.8429,2.0,330.9301344,10.74339332,-99999.0,'11111222,11111222,99999999' 
TABS,ioos:station:wmo:42048:1,2006-10-03T00:00:00Z,27.9396,-96.8429,2.0,314.4460215,8.040180346,-99999.0,'11133222,11111222,99999999' 
TABS,ioos:station:wmo:42048:1,2006-10-03T00:30:00Z,27.9396,-96.8429,2.0,295.7028887,7.724254009,-99999.0,'11133222,11111222,99999999' 
TABS,ioos:station:wmo:42048:1,2006-10-03T01:00:00Z,27.9396,-96.8429,2.0,292.3300466,9.264734211,-99999.0,'11133222,11111222,99999999' 
TABS,ioos:station:wmo:42048:1,2006-10-03T01:30:00Z,27.9396,-96.8429,2.0,286.4051425,10.62243381,-99999.0,'11111222,11111222,99999999' 
TABS,ioos:station:wmo:42048:1,2006-10-03T02:00:00Z,27.9396,-96.8429,2.0,284.0520378,9.019900221,-99999.0,'11133222,11111222,99999999' 
TABS,ioos:station:wmo:42048:1,2006-10-03T02:30:00Z,27.9396,-96.8429,2.0,270.9088381,9.461189143,-99999.0,'11133222,11111222,99999999' 
TABS,ioos:station:wmo:42048:1,2006-10-03T03:00:00Z,27.9396,-96.8429,2.0,271.9032309,9.034982014,-99999.0,'11133222,11111222,99999999' 
TABS,ioos:station:wmo:42048:1,2006-10-03T03:30:00Z,27.9396,-96.8429,2.0,276.9079951,9.478802667,-99999.0,'11133222,11111222,99999999' 
TABS,ioos:station:wmo:42048:1,2006-10-03T04:00:00Z,27.9396,-96.8429,2.0,279.4408064,8.596423675,-99999.0,'11133222,11111222,99999999' 
TABS,ioos:station:wmo:42048:1,2006-10-03T04:30:00Z,27.9396,-96.8429,2.0,279.8252703,7.794312029,-99999.0,'11133222,11111222,99999999' 
TABS,ioos:station:wmo:42048:1,2006-10-03T05:00:00Z,27.9396,-96.8429,2.0,275.8297788,7.679713536,-99999.0,'11133222,11111222,99999999' 
TABS,ioos:station:wmo:42048:1,2006-10-03T05:30:00Z,27.9396,-96.8429,2.0,280.8452065,7.972383583,-99999.0,'11133222,11111222,99999999' 
TABS,ioos:station:wmo:42048:1,2006-10-03T06:00:00Z,27.9396,-96.8429,2.0,283.5403391,7.560119047,-99999.0,'11133222,11111222,99999999' 
TABS,ioos:station:wmo:42048:1,2006-10-03T06:30:00Z,27.9396,-96.8429,2.0,280.2241901,5.690351483,-99999.0,'11133222,11111222,99999999' 
TABS,ioos:station:wmo:42048:1,2006-10-03T07:00:00Z,27.9396,-96.8429,2.0,243.8707045,4.700351051,-99999.0,'11133222,11111222,99999999' 
TABS,ioos:station:wmo:42048:1,2006-10-03T07:30:00Z,27.9396,-96.8429,2.0,281.6897628,5.6266953,-99999.0,'11133222,11111222,99999999' 
TABS,ioos:station:wmo:42048:1,2006-10-03T08:00:00Z,27.9396,-96.8429,2.0,261.4492418,5.784289066,-99999.0,'11133222,11111222,99999999' 
TABS,ioos:station:wmo:42048:1,2006-10-03T08:30:00Z,27.9396,-96.8429,2.0,275.2503812,10.27309593,-99999.0,'11111222,11111222,99999999' 
TABS,ioos:station:wmo:42048:1,2006-10-03T09:00:00Z,27.9396,-96.8429,2.0,261.6644032,8.691812239,-99999.0,'11133222,11111222,99999999' 
TABS,ioos:station:wmo:42048:1,2006-10-03T09:30:00Z,27.9396,-96.8429,2.0,262.664068,9.79012768,-99999.0,'11133222,11111222,99999999' 
TABS,ioos:station:wmo:42048:1,2006-10-03T10:00:00Z,27.9396,-96.8429,2.0,251.1674064,8.209470141,-99999.0,'11133222,11111222,99999999' 
TABS,ioos:station:wmo:42048:1,2006-10-03T10:30:00Z,27.9396,-96.8429,2.0,247.9409836,6.204143777,-99999.0,'11133222,11111222,99999999' 
TABS,ioos:station:wmo:42048:1,2006-10-03T11:00:00Z,27.9396,-96.8429,2.0,258.948781,6.938659813,-99999.0,'11133222,11111222,99999999' 
TABS,ioos:station:wmo:42048:1,2006-10-03T11:30:00Z,27.9396,-96.8429,2.0,261.7630883,8.376401375,-99999.0,'11133222,11111222,99999999' 
TABS,ioos:station:wmo:42048:1,2006-10-03T12:00:00Z,27.9396,-96.8429,2.0,254.7293705,6.644591786,-99999.0,'11133222,11111222,99999999' 
TABS,ioos:station:wmo:42048:1,2006-10-03T12:30:00Z,27.9396,-96.8429,2.0,244.2436879,6.650729283,-99999.0,'11133222,11111222,99999999' 
TABS,ioos:station:wmo:42048:1,2006-10-03T13:00:00Z,27.9396,-96.8429,2.0,254.8969493,5.603543522,-99999.0,'11133222,11111222,99999999' 
TABS,ioos:station:wmo:42048:1,2006-10-03T13:30:00Z,27.9396,-96.8429,2.0,242.4265595,7.626172041,-99999.0,'11133222,11111222,99999999' 
TABS,ioos:station:wmo:42048:1,2006-10-03T14:00:00Z,27.9396,-96.8429,2.0,253.8274579,7.288408605,-99999.0,'11133222,11111222,99999999' 
TABS,ioos:station:wmo:42048:1,2006-10-03T14:30:00Z,27.9396,-96.8429,2.0,243.0593476,10.92566245,-99999.0,'11111222,11111222,99999999' 
TABS,ioos:station:wmo:42048:1,2006-10-03T15:00:00Z,27.9396,-96.8429,2.0,241.5677972,9.472539258,-99999.0,'11133222,11111222,99999999' 
TABS,ioos:station:wmo:42048:1,2006-10-03T15:30:00Z,27.9396,-96.8429,2.0,267.1127103,10.52335498,-99999.0,'11111222,11111222,99999999' 
TABS,ioos:station:wmo:42048:1,2006-10-03T16:00:00Z,27.9396,-96.8429,2.0,264.4827246,12.06588994,-99999.0,'11111222,11111222,99999999' 
TABS,ioos:station:wmo:42048:1,2006-10-03T16:30:00Z,27.9396,-96.8429,2.0,261.8916148,10.98985441,-99999.0,'11111222,11111222,99999999' 
TABS,ioos:station:wmo:42048:1,2006-10-03T17:00:00Z,27.9396,-96.8429,2.0,268.1149289,12.46674376,-99999.0,'11111222,11111222,99999999' 
TABS,ioos:station:wmo:42048:1,2006-10-03T17:30:00Z,27.9396,-96.8429,2.0,267.1264779,13.36680216,-99999.0,'11111222,11111222,99999999' 
TABS,ioos:station:wmo:42048:1,2006-10-03T18:00:00Z,27.9396,-96.8429,2.0,270.0473077,12.22000409,-99999.0,'11111222,11111222,99999999' 
TABS,ioos:station:wmo:42048:1,2006-10-03T19:00:00Z,27.9396,-96.8429,2.0,261.9618583,13.1592743,-99999.0,'11111222,11111222,99999999' 
TABS,ioos:station:wmo:42048:1,2006-10-03T19:30:00Z,27.9396,-96.8429,2.0,250.619051,10.15545666,-99999.0,'11111222,11111222,99999999' 
TABS,ioos:station:wmo:42048:1,2006-10-03T20:00:00Z,27.9396,-96.8429,2.0,271.1704416,13.2227569,-99999.0,'11111222,11111222,99999999' 
TABS,ioos:station:wmo:42048:1,2006-10-03T20:30:00Z,27.9396,-96.8429,2.0,267.3582335,7.377838437,-99999.0,'11133222,11111222,99999999' 
TABS,ioos:station:wmo:42048:1,2006-10-03T21:00:00Z,27.9396,-96.8429,2.0,260.8035662,17.33277243,-99999.0,'11111222,11111222,99999999' 
TABS,ioos:station:wmo:42048:1,2006-10-03T21:30:00Z,27.9396,-96.8429,2.0,262.7546109,10.07040218,-99999.0,'11111222,11111222,99999999' 
TABS,ioos:station:wmo:42048:1,2006-10-03T22:00:00Z,27.9396,-96.8429,2.0,257.5042482,9.290048439,-99999.0,'11133222,11111222,99999999' 
TABS,ioos:station:wmo:42048:1,2006-10-03T22:30:00Z,27.9396,-96.8429,2.0,254.7444961,13.6821051,-99999.0,'11111222,11111222,99999999' 
TABS,ioos:station:wmo:42048:1,2006-10-03T23:00:00Z,27.9396,-96.8429,2.0,256.1380165,12.7307541,-99999.0,'11111222,11111222,99999999' 
TABS,ioos:station:wmo:42048:1,2006-10-03T23:30:00Z,27.9396,-96.8429,2.0,262.2732052,12.64479735,-99999.0,'11111222,11111222,99999999' 
TABS,ioos:station:wmo:42048:1,2006-10-04T00:00:00Z,27.9396,-96.8429,2.0,259.981668,10.00250469,-99999.0,'11111222,11111222,99999999' 
TABS,ioos:station:wmo:42048:1,2006-10-04T00:30:00Z,27.9396,-96.8429,2.0,263.0268261,7.001785487,-99999.0,'11133222,11111222,99999999' 
TABS,ioos:station:wmo:42048:1,2006-10-04T01:00:00Z,27.9396,-96.8429,2.0,256.9969406,16.00025312,-99999.0,'11111222,11111222,99999999' 
TABS,ioos:station:wmo:42048:1,2006-10-04T01:30:00Z,27.9396,-96.8429,2.0,259.9957706,16.00331216,-99999.0,'11111222,11111222,99999999' 
TABS,ioos:station:wmo:42048:1,2006-10-04T02:00:00Z,27.9396,-96.8429,2.0,256.9969406,16.00025312,-99999.0,'11111222,11111222,99999999' 
TABS,ioos:station:wmo:42048:1,2006-10-04T02:30:00Z,27.9396,-96.8429,2.0,248.98856,14.00090354,-99999.0,'11111222,11111222,99999999' 
TABS,ioos:station:wmo:42048:1,2006-10-04T03:00:00Z,27.9396,-96.8429,2.0,256.9942544,11.99775396,-99999.0,'11111222,11111222,99999999' 
TABS,ioos:station:wmo:42048:1,2006-10-04T03:30:00Z,27.9396,-96.8429,2.0,258.0156377,13.00339956,-99999.0,'11111222,11111222,99999999' 
TABS,ioos:station:wmo:42048:1,2006-10-04T04:00:00Z,27.9396,-96.8429,2.0,253.9980152,14.00254263,-99999.0,'11111222,11111222,99999999' 
TABS,ioos:station:wmo:42048:1,2006-10-04T04:30:00Z,27.9396,-96.8429,2.0,258.0156377,13.00339956,-99999.0,'11111222,11111222,99999999' 
TABS,ioos:station:wmo:42048:1,2006-10-04T05:00:00Z,27.9396,-96.8429,2.0,256.9942544,11.99775396,-99999.0,'11111222,11111222,99999999' 
TABS,ioos:station:wmo:42048:1,2006-10-04T05:30:00Z,27.9396,-96.8429,2.0,260.9998833,10.99536266,-99999.0,'11111222,11111222,99999999' 
TABS,ioos:station:wmo:42048:1,2006-10-04T06:00:00Z,27.9396,-96.8429,2.0,260.9998833,10.99536266,-99999.0,'11111222,11111222,99999999' 
TABS,ioos:station:wmo:42048:1,2006-10-04T06:30:00Z,27.9396,-96.8429,2.0,252.0075683,9.00011111,-99999.0,'11133222,11111222,99999999' 
TABS,ioos:station:wmo:42048:1,2006-10-04T07:00:00Z,27.9396,-96.8429,2.0,82.97768057,8.997494096,-99999.0,'11133222,11111222,99999999' 
TABS,ioos:station:wmo:42048:1,2006-10-04T07:30:00Z,27.9396,-96.8429,2.0,242.0249146,9.998249847,-99999.0,'11133222,11111222,99999999' 
TABS,ioos:station:wmo:42048:1,2006-10-04T08:00:00Z,27.9396,-96.8429,2.0,236.0093385,8.997360724,-99999.0,'11133222,11111222,99999999' 
TABS,ioos:station:wmo:42048:1,2006-10-04T08:30:00Z,27.9396,-96.8429,2.0,229.9577141,8.999788886,-99999.0,'11133222,11111222,99999999' 
TABS,ioos:station:wmo:42048:1,2006-10-04T09:00:00Z,27.9396,-96.8429,2.0,232.9838715,10.99603565,-99999.0,'11111222,11111222,99999999' 
TABS,ioos:station:wmo:42048:1,2006-10-04T09:30:00Z,27.9396,-96.8429,2.0,0.0,0.0,-99999.0,'11133222,11111222,99999999' 
TABS,ioos:station:wmo:42048:1,2006-10-04T10:00:00Z,27.9396,-96.8429,2.0,229.9577141,8.999788886,-99999.0,'11133222,11111222,99999999' 
TABS,ioos:station:wmo:42048:1,2006-10-04T10:30:00Z,27.9396,-96.8429,2.0,230.0140735,11.0022634,-99999.0,'11111222,11111222,99999999' 
TABS,ioos:station:wmo:42048:1,2006-10-04T11:00:00Z,27.9396,-96.8429,2.0,206.984178,10.99727694,-99999.0,'11111222,11111222,99999999' 
TABS,ioos:station:wmo:42048:1,2006-10-04T11:30:00Z,27.9396,-96.8429,2.0,233.0063239,12.99603016,-99999.0,'11111222,11111222,99999999' 
TABS,ioos:station:wmo:42048:1,2006-10-04T12:00:00Z,27.9396,-96.8429,2.0,222.0140141,10.99629483,-99999.0,'11111222,11111222,99999999' 
TABS,ioos:station:wmo:42048:1,2006-10-04T12:30:00Z,27.9396,-96.8429,2.0,218.9849087,10.99949544,-99999.0,'11111222,11111222,99999999' 
TABS,ioos:station:wmo:42048:1,2006-10-04T13:00:00Z,27.9396,-96.8429,2.0,222.0140141,10.99629483,-99999.0,'11111222,11111222,99999999' 
TABS,ioos:station:wmo:42048:1,2006-10-04T13:30:00Z,27.9396,-96.8429,2.0,218.0153611,10.0019998,-99999.0,'11111222,11111222,99999999' 
TABS,ioos:station:wmo:42048:1,2006-10-04T14:00:00Z,27.9396,-96.8429,2.0,216.0036736,8.999027725,-99999.0,'11133222,11111222,99999999' 
TABS,ioos:station:wmo:42048:1,2006-10-04T14:30:00Z,27.9396,-96.8429,2.0,222.0065593,13.00021538,-99999.0,'11111222,11111222,99999999' 
TABS,ioos:station:wmo:42048:1,2006-10-04T15:00:00Z,27.9396,-96.8429,2.0,218.9849087,10.99949544,-99999.0,'11111222,11111222,99999999' 
TABS,ioos:station:wmo:42048:1,2006-10-04T15:30:00Z,27.9396,-96.8429,2.0,219.0037453,12.99701504,-99999.0,'11111222,11111222,99999999' 
TABS,ioos:station:wmo:42048:1,2006-10-04T16:00:00Z,27.9396,-96.8429,2.0,224.9996843,14.00071427,-99999.0,'11111222,11111222,99999999' 
TABS,ioos:station:wmo:42048:1,2006-10-04T16:30:00Z,27.9396,-96.8429,2.0,224.9996843,14.00071427,-99999.0,'11111222,11111222,99999999' 